Time,TemperatureF,DewpointF,PressureIn,WindDirection,WindDirectionDegrees,WindSpeedMPH,WindSpeedGustMPH,Humidity,HourlyPrecipIn,Conditions,Clouds,dailyrainin,SoftwareType,DateUTC
2013-03-26 00:21:00,34.7,29.5,29.44,NE,45,2.2,-999.0,81,-99.99,,,0.00,Acu-Link.com,2013-03-26 04:21:00,
2013-03-26 00:36:00,34.9,29.4,29.44,SSE,157,1.7,-999.0,80,-99.99,,,0.00,Acu-Link.com,2013-03-26 04:36:00,
2013-03-26 00:52:00,34.9,29.1,29.44,NE,45,4.7,-999.0,79,-99.99,,,0.00,Acu-Link.com,2013-03-26 04:52:00,
2013-03-26 01:07:00,34.9,28.8,29.44,WSW,247,1.7,-999.0,78,-99.99,,,0.00,Acu-Link.com,2013-03-26 05:07:00,
2013-03-26 01:22:00,34.9,28.8,29.45,SW,225,1.7,-999.0,78,-99.99,,,0.00,Acu-Link.com,2013-03-26 05:22:00,
2013-03-26 01:37:00,34.7,28.2,29.44,SW,225,3.2,-999.0,77,-99.99,,,0.00,Acu-Link.com,2013-03-26 05:37:00,
2013-03-26 01:52:00,34.7,27.9,29.46,East,90,2.2,-999.0,76,-99.99,,,0.00,Acu-Link.com,2013-03-26 05:52:00,
2013-03-26 02:08:00,34.7,27.6,29.45,SSE,157,0.0,-999.0,75,-99.99,,,0.00,Acu-Link.com,2013-03-26 06:08:00,
2013-03-26 02:23:00,34.7,27.9,29.45,WNW,292,2.2,-999.0,76,-99.99,,,0.00,Acu-Link.com,2013-03-26 06:23:00,
2013-03-26 02:38:00,34.7,27.6,29.46,ENE,67,2.7,-999.0,75,-99.99,,,0.00,Acu-Link.com,2013-03-26 06:38:00,
2013-03-26 02:53:00,34.7,27.3,29.46,ENE,67,1.7,-999.0,74,-99.99,,,0.00,Acu-Link.com,2013-03-26 06:53:00,
2013-03-26 03:08:00,34.7,27.3,29.47,NNW,337,2.7,-999.0,74,-99.99,,,0.00,Acu-Link.com,2013-03-26 07:08:00,
2013-03-26 03:24:00,34.5,27.1,29.46,NNE,22,0.0,-999.0,74,-99.99,,,0.00,Acu-Link.com,2013-03-26 07:24:00,
2013-03-26 03:39:00,34.3,26.9,29.46,NNE,22,2.7,-999.0,74,-99.99,,,0.00,Acu-Link.com,2013-03-26 07:39:00,
2013-03-26 03:54:00,34.2,26.8,29.48,ENE,67,4.7,-999.0,74,-99.99,,,0.00,Acu-Link.com,2013-03-26 07:54:00,
2013-03-26 04:10:00,34.2,27.1,29.47,NNE,22,3.7,-999.0,75,-99.99,,,0.00,Acu-Link.com,2013-03-26 08:10:00,
2013-03-26 04:25:00,34.2,26.8,29.47,SSW,202,1.7,-999.0,74,-99.99,,,0.00,Acu-Link.com,2013-03-26 08:25:00,
2013-03-26 04:40:00,34.3,26.9,29.48,NNE,22,1.7,-999.0,74,-99.99,,,0.00,Acu-Link.com,2013-03-26 08:40:00,
2013-03-26 04:55:00,34.2,26.8,29.48,South,180,0.0,-999.0,74,-99.99,,,0.00,Acu-Link.com,2013-03-26 08:55:00,
2013-03-26 05:11:00,33.6,26.5,29.50,NW,315,3.7,-999.0,75,-99.99,,,0.00,Acu-Link.com,2013-03-26 09:11:00,
2013-03-26 05:26:00,33.4,27.0,29.50,SSE,157,0.0,-999.0,77,-99.99,,,0.00,Acu-Link.com,2013-03-26 09:26:00,
2013-03-26 05:41:00,33.3,26.9,29.51,NE,45,1.7,-999.0,77,-99.99,,,0.00,Acu-Link.com,2013-03-26 09:41:00,
2013-03-26 05:56:00,33.4,26.7,29.52,SSE,157,1.7,-999.0,76,-99.99,,,0.00,Acu-Link.com,2013-03-26 09:56:00,
2013-03-26 06:27:00,33.4,27.0,29.53,NE,45,3.2,-999.0,77,-99.99,,,0.00,Acu-Link.com,2013-03-26 10:27:00,
2013-03-26 06:42:00,33.3,26.9,29.53,SW,225,0.0,-999.0,77,-99.99,,,0.00,Acu-Link.com,2013-03-26 10:42:00,
2013-03-26 06:57:00,33.3,26.9,29.53,NNW,337,0.0,-999.0,77,-99.99,,,0.00,Acu-Link.com,2013-03-26 10:57:00,
2013-03-26 07:12:00,33.4,27.0,29.55,NNE,22,1.1,-999.0,77,-99.99,,,0.00,Acu-Link.com,2013-03-26 11:12:00,
2013-03-26 07:28:00,34.0,27.2,29.55,SW,225,0.0,-999.0,76,-99.99,,,0.00,Acu-Link.com,2013-03-26 11:28:00,
2013-03-26 07:43:00,34.5,27.1,29.56,NNW,337,1.7,-999.0,74,-99.99,,,0.00,Acu-Link.com,2013-03-26 11:43:00,
2013-03-26 07:58:00,35.1,27.3,29.57,NE,45,0.0,-999.0,73,-99.99,,,0.00,Acu-Link.com,2013-03-26 11:58:00,
2013-03-26 08:13:00,35.6,27.1,29.57,East,90,2.7,-999.0,71,-99.99,,,0.00,Acu-Link.com,2013-03-26 12:13:00,
2013-03-26 08:29:00,36.0,27.2,29.58,NE,45,3.2,-999.0,70,-99.99,,,0.00,Acu-Link.com,2013-03-26 12:29:00,
2013-03-26 08:44:00,36.1,26.9,29.57,South,180,1.7,-999.0,69,-99.99,,,0.00,Acu-Link.com,2013-03-26 12:44:00,
2013-03-26 08:59:00,36.7,27.2,29.58,North,0,1.1,-999.0,68,-99.99,,,0.00,Acu-Link.com,2013-03-26 12:59:00,
2013-03-26 09:14:00,36.7,26.8,29.58,ENE,67,1.7,-999.0,67,-99.99,,,0.00,Acu-Link.com,2013-03-26 13:14:00,
2013-03-26 09:30:00,36.7,26.1,29.58,NE,45,1.7,-999.0,65,-99.99,,,0.00,Acu-Link.com,2013-03-26 13:30:00,
2013-03-26 09:45:00,37.6,25.8,29.59,NW,315,1.7,-999.0,62,-99.99,,,0.00,Acu-Link.com,2013-03-26 13:45:00,
2013-03-26 10:00:00,38.1,26.3,29.60,NNE,22,2.2,-999.0,62,-99.99,,,0.00,Acu-Link.com,2013-03-26 14:00:00,
2013-03-26 10:15:00,37.9,25.7,29.60,NE,45,3.7,-999.0,61,-99.99,,,0.00,Acu-Link.com,2013-03-26 14:15:00,
2013-03-26 10:30:00,37.2,26.5,29.59,NE,45,3.2,-999.0,65,-99.99,,,0.00,Acu-Link.com,2013-03-26 14:30:00,
2013-03-26 10:46:00,38.1,26.3,29.59,NE,45,2.2,-999.0,62,-99.99,,,0.00,Acu-Link.com,2013-03-26 14:46:00,
2013-03-26 11:16:00,40.1,26.9,29.60,NW,315,3.7,-999.0,59,-99.99,,,0.00,Acu-Link.com,2013-03-26 15:16:00,
2013-03-26 11:31:00,41.2,27.1,29.60,East,90,3.7,-999.0,57,-99.99,,,0.00,Acu-Link.com,2013-03-26 15:31:00,
2013-03-26 11:46:00,40.6,27.0,29.60,SSW,202,4.7,-999.0,58,-99.99,,,0.00,Acu-Link.com,2013-03-26 15:46:00,
2013-03-26 12:02:00,41.4,26.5,29.59,SE,135,0.0,-999.0,55,-99.99,,,0.00,Acu-Link.com,2013-03-26 16:02:00,
2013-03-26 12:17:00,42.3,26.9,29.59,SW,225,3.7,-999.0,54,-99.99,,,0.00,Acu-Link.com,2013-03-26 16:17:00,
2013-03-26 12:32:00,41.9,27.4,29.60,WSW,247,3.7,-999.0,56,-99.99,,,0.00,Acu-Link.com,2013-03-26 16:32:00,
2013-03-26 13:02:00,43.9,28.3,29.59,North,0,3.2,-999.0,54,-99.99,,,0.00,Acu-Link.com,2013-03-26 17:02:00,
2013-03-26 13:18:00,44.4,27.4,29.60,ENE,67,4.7,-999.0,51,-99.99,,,0.00,Acu-Link.com,2013-03-26 17:18:00,
2013-03-26 13:33:00,43.3,27.3,29.59,ESE,112,1.7,-999.0,53,-99.99,,,0.00,Acu-Link.com,2013-03-26 17:33:00,
2013-03-26 13:48:00,44.4,27.9,29.59,ENE,67,3.7,-999.0,52,-99.99,,,0.00,Acu-Link.com,2013-03-26 17:48:00,
2013-03-26 14:03:00,43.7,27.2,29.60,NNE,22,3.7,-999.0,52,-99.99,,,0.00,Acu-Link.com,2013-03-26 18:03:00,
2013-03-26 14:19:00,46.2,28.1,29.59,SW,225,6.3,-999.0,49,-99.99,,,0.00,Acu-Link.com,2013-03-26 18:19:00,
2013-03-26 14:34:00,44.6,27.6,29.59,North,0,2.7,-999.0,51,-99.99,,,0.00,Acu-Link.com,2013-03-26 18:34:00,
2013-03-26 14:49:00,44.2,27.2,29.60,SSW,202,3.2,-999.0,51,-99.99,,,0.00,Acu-Link.com,2013-03-26 18:49:00,
2013-03-26 15:04:00,44.2,26.3,29.58,South,180,4.7,-999.0,49,-99.99,,,0.00,Acu-Link.com,2013-03-26 19:04:00,
2013-03-26 15:20:00,44.2,24.7,29.60,ESE,112,2.7,-999.0,46,-99.99,,,0.00,Acu-Link.com,2013-03-26 19:20:00,
2013-03-26 15:35:00,47.5,25.0,29.59,SSW,202,4.7,-999.0,41,-99.99,,,0.00,Acu-Link.com,2013-03-26 19:35:00,
2013-03-26 15:50:00,48.2,24.4,29.59,SSW,202,1.7,-999.0,39,-99.99,,,0.00,Acu-Link.com,2013-03-26 19:50:00,
2013-03-26 16:05:00,49.1,24.0,29.59,NNE,22,3.7,-999.0,37,-99.99,,,0.00,Acu-Link.com,2013-03-26 20:05:00,
2013-03-26 16:21:00,47.3,23.0,29.60,ESE,112,4.2,-999.0,38,-99.99,,,0.00,Acu-Link.com,2013-03-26 20:21:00,
2013-03-26 16:36:00,50.5,23.9,29.59,ESE,112,2.7,-999.0,35,-99.99,,,0.00,Acu-Link.com,2013-03-26 20:36:00,
2013-03-26 17:06:00,49.3,23.5,29.60,SSE,157,4.7,-999.0,36,-99.99,,,0.00,Acu-Link.com,2013-03-26 21:06:00,
2013-03-26 17:21:00,46.9,23.3,29.60,SSE,157,2.7,-999.0,39,-99.99,,,0.00,Acu-Link.com,2013-03-26 21:21:00,
2013-03-26 17:37:00,46.8,23.8,29.62,SW,225,4.7,-999.0,40,-99.99,,,0.00,Acu-Link.com,2013-03-26 21:37:00,
2013-03-26 17:52:00,47.8,22.2,29.61,North,0,3.7,-999.0,36,-99.99,,,0.00,Acu-Link.com,2013-03-26 21:52:00,
2013-03-26 18:07:00,47.7,22.7,29.62,SW,225,2.7,-999.0,37,-99.99,,,0.00,Acu-Link.com,2013-03-26 22:07:00,
2013-03-26 18:22:00,47.1,23.4,29.62,SW,225,4.7,-999.0,39,-99.99,,,0.00,Acu-Link.com,2013-03-26 22:22:00,
2013-03-26 18:37:00,46.4,24.0,29.62,SW,225,2.7,-999.0,41,-99.99,,,0.00,Acu-Link.com,2013-03-26 22:37:00,
2013-03-26 18:53:00,44.2,23.7,29.62,SW,225,1.1,-999.0,44,-99.99,,,0.00,Acu-Link.com,2013-03-26 22:53:00,
2013-03-26 19:08:00,42.8,22.4,29.63,West,270,1.7,-999.0,44,-99.99,,,0.00,Acu-Link.com,2013-03-26 23:08:00,
2013-03-26 19:23:00,41.7,22.5,29.64,South,180,3.7,-999.0,46,-99.99,,,0.00,Acu-Link.com,2013-03-26 23:23:00,
2013-03-26 19:38:00,40.6,22.5,29.65,NNE,22,4.2,-999.0,48,-99.99,,,0.00,Acu-Link.com,2013-03-26 23:38:00,
2013-03-26 19:53:00,40.1,22.0,29.67,ESE,112,0.0,-999.0,48,-99.99,,,0.00,Acu-Link.com,2013-03-26 23:53:00,
2013-03-26 20:09:00,39.4,22.3,29.66,NNE,22,1.7,-999.0,50,-99.99,,,0.00,Acu-Link.com,2013-03-27 00:09:00,
2013-03-26 20:24:00,39.0,22.0,29.67,ENE,67,1.1,-999.0,50,-99.99,,,0.00,Acu-Link.com,2013-03-27 00:24:00,
2013-03-26 20:39:00,38.7,22.1,29.67,West,270,1.1,-999.0,51,-99.99,,,0.00,Acu-Link.com,2013-03-27 00:39:00,
2013-03-26 20:54:00,37.6,21.6,29.67,North,0,0.0,-999.0,52,-99.99,,,0.00,Acu-Link.com,2013-03-27 00:54:00,
2013-03-26 21:10:00,36.3,21.7,29.67,NNE,22,0.0,-999.0,55,-99.99,,,0.00,Acu-Link.com,2013-03-27 01:10:00,
2013-03-26 21:25:00,35.2,21.5,29.67,NNE,22,0.0,-999.0,57,-99.99,,,0.00,Acu-Link.com,2013-03-27 01:25:00,
2013-03-26 21:40:00,34.7,21.9,29.70,NNE,22,0.0,-999.0,59,-99.99,,,0.00,Acu-Link.com,2013-03-27 01:40:00,
2013-03-26 21:55:00,33.8,21.4,29.69,NNE,22,0.0,-999.0,60,-99.99,,,0.00,Acu-Link.com,2013-03-27 01:55:00,
2013-03-26 22:10:00,34.0,21.6,29.69,NNW,337,0.0,-999.0,60,-99.99,,,0.00,Acu-Link.com,2013-03-27 02:10:00,
2013-03-26 22:26:00,34.2,21.4,29.69,NNE,22,1.7,-999.0,59,-99.99,,,0.00,Acu-Link.com,2013-03-27 02:26:00,
2013-03-26 22:56:00,33.6,20.4,29.70,ENE,67,0.0,-999.0,58,-99.99,,,0.00,Acu-Link.com,2013-03-27 02:56:00,
2013-03-26 23:11:00,33.4,20.6,29.70,NE,45,0.0,-999.0,59,-99.99,,,0.00,Acu-Link.com,2013-03-27 03:11:00,
2013-03-26 23:26:00,33.1,20.0,29.69,NNW,337,0.0,-999.0,58,-99.99,,,0.00,Acu-Link.com,2013-03-27 03:26:00,
2013-03-26 23:42:00,32.5,19.8,29.70,NNE,22,0.0,-999.0,59,-99.99,,,0.00,Acu-Link.com,2013-03-27 03:42:00,
2013-03-26 23:57:00,31.8,19.5,29.70,East,90,0.0,-999.0,60,-99.99,,,0.00,Acu-Link.com,2013-03-27 03:57:00,